Location: Godzisko
(49.9648°N, 19.4576°E)
Time: 06:52:22
(UTC+00:00)

SJ 16-02 - Pass Details

Date: 20 April 2021
Orbit: 605 x 617 km, 75.0° (Epoch: 06 May)

Event Time Altitude Azimuth Distance (km) Brightness Sun altitude
Exits shadow 00:10:39 47° 97° (E) 823 2.0 -25.5°
Drops below altitude 10° 00:14:43 10° 32° (NNE) 1,990 5.0 -25.2°
Sets 00:17:02 0° 27° (NNE) 2,901 6.2 -25.0°
